UAE29 YSSY-OMDB

Flight info

Callsign UAE29
Flight time N/A
Altitude 34000
Route KADOM A576 AS A587 DOPUK/N0499F360 A587 ONOXA G326 BLI M635 SUMDI/N0493F380 M635 JUNHA DCT IRTAD A464 SJ G579 VJB Y342 AROSO Y513 KALIL Y504 BILIK G582 PUGER P574 ELSAR/N0485F400 P574 PAROK Q899 ITURA M762 VAXAS/N0477F240 M762 MIVEK P574 IMPED
Aircraft A359/H-SDE2E3GHIJ3J4J5LM1ORWXY/LB1D1

Departure

Time N/A
Airport Sydney Kingsford Smith International Airport (YSSY)

Arrival

Time 2026-04-21 15:32
Airport Dubai International Airport (OMDB)
Time Latitude Longitude Altitude Speed Heading
2026-04-21 13:44 20.18385 65.76191 39830 ft 477 kts 299°
2026-04-21 13:45 20.21489 65.69940 39834 ft 477 kts 299°
2026-04-21 13:45 20.24588 65.63687 39834 ft 477 kts 299°
2026-04-21 13:46 20.27663 65.57476 39832 ft 477 kts 299°
2026-04-21 13:46 20.30750 65.51229 39834 ft 476 kts 299°
2026-04-21 13:47 20.33833 65.44988 39834 ft 476 kts 298°
2026-04-21 13:47 20.36909 65.38754 39835 ft 475 kts 299°
2026-04-21 13:48 20.39979 65.32527 39836 ft 474 kts 298°
2026-04-21 13:48 20.43021 65.26345 39825 ft 474 kts 298°
2026-04-21 13:49 20.46082 65.20122 39824 ft 474 kts 298°
2026-04-21 13:49 20.49135 65.13905 39815 ft 473 kts 298°
2026-04-21 13:50 20.52179 65.07701 39820 ft 472 kts 298°
2026-04-21 13:50 20.55195 65.01547 39826 ft 471 kts 298°
2026-04-21 13:51 20.58245 64.95364 39828 ft 470 kts 299°
2026-04-21 13:51 20.61325 64.89221 39786 ft 470 kts 299°
2026-04-21 13:52 20.64408 64.83069 39786 ft 469 kts 299°
2026-04-21 13:52 20.67454 64.76969 39785 ft 468 kts 299°
2026-04-21 13:53 20.70511 64.70832 39786 ft 468 kts 299°
2026-04-21 13:53 20.73570 64.64685 39785 ft 469 kts 299°
2026-04-21 13:54 20.76625 64.58539 39785 ft 468 kts 299°
2026-04-21 13:54 20.79654 64.52437 39785 ft 468 kts 299°
2026-04-21 13:55 20.82697 64.46293 39786 ft 467 kts 298°
2026-04-21 13:55 20.85731 64.40161 39791 ft 467 kts 298°
2026-04-21 13:56 20.88768 64.34024 39794 ft 467 kts 298°
2026-04-21 13:56 20.91782 64.27925 39794 ft 467 kts 298°
2026-04-21 13:57 20.94814 64.21786 39795 ft 467 kts 298°
2026-04-21 13:57 20.97848 64.15634 39795 ft 467 kts 298°
2026-04-21 13:58 21.00877 64.09481 39794 ft 468 kts 298°
2026-04-21 13:58 21.03906 64.03325 39795 ft 467 kts 298°
2026-04-21 13:59 21.06905 63.97221 39796 ft 466 kts 298°
2026-04-21 13:59 21.09911 63.91098 39795 ft 464 kts 298°
2026-04-21 14:00 21.12908 63.84991 39795 ft 463 kts 298°
2026-04-21 14:00 21.15902 63.78872 39794 ft 463 kts 298°
2026-04-21 14:01 21.18890 63.72759 39795 ft 463 kts 298°
2026-04-21 14:01 21.21861 63.66683 39795 ft 463 kts 298°
2026-04-21 14:02 21.24846 63.60567 39795 ft 463 kts 298°
2026-04-21 14:03 21.29319 63.51380 39795 ft 463 kts 298°
2026-04-21 14:03 21.32273 63.45305 39795 ft 463 kts 298°
2026-04-21 14:04 21.35249 63.39185 39804 ft 462 kts 298°
2026-04-21 14:04 21.38223 63.33063 39804 ft 462 kts 298°
2026-04-21 14:05 21.41190 63.26946 39805 ft 462 kts 298°
2026-04-21 14:05 21.44150 63.20833 39805 ft 462 kts 298°
2026-04-21 14:06 21.47089 63.14762 39804 ft 461 kts 298°
2026-04-21 14:06 21.50045 63.08645 39805 ft 461 kts 298°
2026-04-21 14:07 21.52996 63.02529 39803 ft 461 kts 298°
2026-04-21 14:07 21.55942 62.96420 39804 ft 461 kts 298°
2026-04-21 14:08 21.58867 62.90348 39804 ft 460 kts 298°
2026-04-21 14:08 21.61804 62.84243 39804 ft 460 kts 298°
2026-04-21 14:09 21.64737 62.78138 39804 ft 459 kts 298°
2026-04-21 14:09 21.67662 62.72037 39803 ft 459 kts 298°
2026-04-21 14:10 21.70561 62.65989 39804 ft 457 kts 298°
2026-04-21 14:10 21.73473 62.59911 39804 ft 457 kts 298°
2026-04-21 14:11 21.76385 62.53835 39804 ft 457 kts 298°
2026-04-21 14:11 21.79283 62.47758 39805 ft 456 kts 298°
2026-04-21 14:12 21.82160 62.41725 39812 ft 456 kts 298°
2026-04-21 14:12 21.85042 62.35650 39812 ft 455 kts 297°
2026-04-21 14:13 21.87651 62.29432 39826 ft 456 kts 294°
2026-04-21 14:13 21.90156 62.23169 39810 ft 455 kts 295°
2026-04-21 14:14 21.92674 62.16973 39813 ft 455 kts 295°
2026-04-21 14:14 21.95235 62.10754 39812 ft 454 kts 295°
2026-04-21 14:15 21.97801 62.04534 39809 ft 455 kts 295°
2026-04-21 14:15 22.00368 61.98301 39811 ft 455 kts 295°
2026-04-21 14:16 22.02911 61.92114 39811 ft 455 kts 295°
2026-04-21 14:16 22.05473 61.85884 39811 ft 454 kts 295°
2026-04-21 14:17 22.08028 61.79648 39829 ft 455 kts 295°
2026-04-21 14:17 22.10578 61.73420 39809 ft 454 kts 295°
2026-04-21 14:18 22.13108 61.67232 39811 ft 455 kts 295°
2026-04-21 14:18 22.15659 61.60985 39810 ft 455 kts 295°
2026-04-21 14:19 22.18209 61.54733 39805 ft 455 kts 295°
2026-04-21 14:19 22.20753 61.48488 39806 ft 454 kts 295°
2026-04-21 14:20 22.23294 61.42251 39804 ft 454 kts 295°
2026-04-21 14:20 22.25830 61.36011 39804 ft 454 kts 295°
2026-04-21 14:21 22.28345 61.29814 39803 ft 453 kts 295°
2026-04-21 14:21 22.30873 61.23585 39804 ft 453 kts 295°
2026-04-21 14:22 22.33399 61.17347 39804 ft 453 kts 295°
2026-04-21 14:22 22.35920 61.11109 39804 ft 453 kts 295°
2026-04-21 14:23 22.38440 61.04859 39804 ft 453 kts 295°
2026-04-21 14:23 22.40940 60.98665 39803 ft 453 kts 296°
2026-04-21 14:24 22.43450 60.92441 39805 ft 452 kts 296°
2026-04-21 14:24 22.45955 60.86208 39804 ft 452 kts 296°
2026-04-21 14:25 22.48452 60.79983 39804 ft 452 kts 296°
2026-04-21 14:25 22.50954 60.73746 39803 ft 452 kts 296°
2026-04-21 14:26 22.53432 60.67557 39803 ft 451 kts 296°
2026-04-21 14:26 22.55922 60.61334 39803 ft 451 kts 296°
2026-04-21 14:27 22.58415 60.55100 39804 ft 451 kts 296°
2026-04-21 14:27 22.60903 60.48874 39804 ft 451 kts 296°
2026-04-21 14:28 22.63368 60.42686 39803 ft 450 kts 296°
2026-04-21 14:28 22.65842 60.36457 39806 ft 451 kts 296°
2026-04-21 14:29 22.68326 60.30226 39804 ft 450 kts 296°
2026-04-21 14:29 22.70798 60.24003 39803 ft 450 kts 296°
2026-04-21 14:30 22.73250 60.17823 39804 ft 449 kts 296°
2026-04-21 14:30 22.75712 60.11602 39804 ft 449 kts 296°
2026-04-21 14:31 22.78175 60.05381 39804 ft 450 kts 296°
2026-04-21 14:31 22.80637 59.99154 39804 ft 449 kts 296°
2026-04-21 14:32 22.83090 59.92939 39803 ft 447 kts 296°
2026-04-21 14:32 22.85505 59.86799 39806 ft 445 kts 296°
2026-04-21 14:33 22.87935 59.80636 39804 ft 445 kts 296°
2026-04-21 14:33 22.90352 59.74472 39803 ft 444 kts 296°
2026-04-21 14:34 22.92773 59.68309 39804 ft 444 kts 296°
2026-04-21 14:34 22.95171 59.62192 39805 ft 444 kts 296°
2026-04-21 14:35 22.97584 59.56028 39803 ft 444 kts 296°
2026-04-21 14:35 22.99992 59.49863 39805 ft 443 kts 296°
2026-04-21 14:36 23.02395 59.43715 39805 ft 442 kts 296°
2026-04-21 14:36 23.04778 59.37602 39804 ft 442 kts 296°
2026-04-21 14:37 23.07164 59.31468 39804 ft 441 kts 296°
2026-04-21 14:37 23.09532 59.25319 39805 ft 442 kts 296°
2026-04-21 14:38 23.11899 59.19167 39805 ft 441 kts 296°
2026-04-21 14:38 23.14265 59.13022 39804 ft 440 kts 296°
2026-04-21 14:39 23.16607 59.06927 39804 ft 440 kts 295°
2026-04-21 14:39 23.18481 59.00577 39803 ft 442 kts 289°
2026-04-21 14:40 23.20087 58.94121 39804 ft 442 kts 288°
2026-04-21 14:40 23.21640 58.87660 39804 ft 442 kts 288°
2026-04-21 14:41 23.23184 58.81245 39804 ft 441 kts 288°
2026-04-21 14:41 23.24744 58.74800 39803 ft 440 kts 288°
2026-04-21 14:42 23.26300 58.68368 39803 ft 440 kts 288°
2026-04-21 14:42 23.27851 58.61945 39804 ft 439 kts 288°
2026-04-21 14:43 23.29388 58.55569 39802 ft 438 kts 288°
2026-04-21 14:43 23.30931 58.49162 39804 ft 437 kts 288°
2026-04-21 14:44 23.32466 58.42763 39807 ft 437 kts 288°
2026-04-21 14:44 23.33999 58.36369 39803 ft 436 kts 288°
2026-04-21 14:45 23.35514 58.30030 39811 ft 436 kts 288°
2026-04-21 14:45 23.37033 58.23643 39803 ft 436 kts 288°
2026-04-21 14:46 23.38552 58.17263 39805 ft 435 kts 288°
2026-04-21 14:46 23.40713 58.11165 39803 ft 430 kts 300°
2026-04-21 14:47 23.43959 58.05715 39803 ft 429 kts 306°
2026-04-21 14:47 23.47395 58.00468 39805 ft 429 kts 307°
2026-04-21 14:48 23.50881 57.95205 39803 ft 427 kts 306°
2026-04-21 14:48 23.54335 57.89946 39804 ft 426 kts 306°
2026-04-21 14:49 23.57769 57.84687 39804 ft 426 kts 306°
2026-04-21 14:49 23.61231 57.79495 39801 ft 426 kts 308°
2026-04-21 14:50 23.64298 57.75244 39795 ft 426 kts 309°
2026-04-21 14:50 23.68580 57.69372 39794 ft 426 kts 308°
2026-04-21 14:51 23.72241 57.64286 39795 ft 426 kts 308°
2026-04-21 14:51 23.75853 57.59234 39795 ft 425 kts 308°
2026-04-21 14:52 23.79487 57.54145 39794 ft 425 kts 308°
2026-04-21 14:52 23.83104 57.49056 39795 ft 425 kts 308°
2026-04-21 14:53 23.86723 57.43957 39794 ft 424 kts 308°
2026-04-21 14:53 23.90343 57.38868 39793 ft 424 kts 308°
2026-04-21 14:54 23.93941 57.33805 39785 ft 424 kts 308°
2026-04-21 14:54 23.97552 57.28720 39786 ft 423 kts 308°
2026-04-21 14:55 24.01155 57.23634 39785 ft 422 kts 307°
2026-04-21 14:55 24.04747 57.18559 39785 ft 422 kts 307°
2026-04-21 14:56 24.08317 57.13509 39786 ft 422 kts 307°
2026-04-21 14:56 24.10109 57.10968 39601 ft 421 kts 307°
2026-04-21 14:56 24.11901 57.08433 39355 ft 421 kts 307°
2026-04-21 14:56 24.13684 57.05910 39116 ft 414 kts 307°
2026-04-21 14:57 24.15437 57.03430 38622 ft 410 kts 307°
2026-04-21 14:57 24.17183 57.00956 37942 ft 412 kts 307°
2026-04-21 14:57 24.18345 56.99307 37500 ft 412 kts 307°
2026-04-21 14:57 24.20096 56.96822 36841 ft 414 kts 307°
2026-04-21 14:58 24.21861 56.94316 36129 ft 415 kts 307°
2026-04-21 14:58 24.23634 56.91802 35413 ft 418 kts 307°
2026-04-21 14:58 24.26002 56.88434 34375 ft 426 kts 306°
2026-04-21 14:58 24.27830 56.85827 33513 ft 437 kts 306°
2026-04-21 14:59 24.29070 56.84059 32929 ft 445 kts 306°
2026-04-21 14:59 24.30972 56.81346 32001 ft 453 kts 306°
2026-04-21 14:59 24.32903 56.78593 31035 ft 459 kts 306°
2026-04-21 14:59 24.34860 56.75802 30040 ft 464 kts 306°
2026-04-21 15:00 24.36841 56.72977 28979 ft 470 kts 306°
2026-04-21 15:00 24.38835 56.70131 28200 ft 470 kts 306°
2026-04-21 15:00 24.41460 56.66382 27239 ft 467 kts 305°
2026-04-21 15:00 24.42806 56.64483 26716 ft 465 kts 307°
2026-04-21 15:01 24.44940 56.61814 25946 ft 464 kts 310°
2026-04-21 15:01 24.47084 56.59243 25212 ft 462 kts 310°
2026-04-21 15:01 24.49269 56.56674 24474 ft 459 kts 310°
2026-04-21 15:01 24.51451 56.54131 23975 ft 455 kts 311°
2026-04-21 15:02 24.54356 56.50753 23779 ft 455 kts 310°
2026-04-21 15:02 24.55792 56.49081 23776 ft 454 kts 310°
2026-04-21 15:02 24.57957 56.46554 23776 ft 453 kts 310°
2026-04-21 15:02 24.60115 56.44029 23775 ft 453 kts 310°
2026-04-21 15:03 24.62272 56.41502 23775 ft 453 kts 310°
2026-04-21 15:03 24.64429 56.38972 23775 ft 453 kts 310°
2026-04-21 15:03 24.66554 56.36477 23774 ft 453 kts 310°
2026-04-21 15:03 24.68707 56.33948 23775 ft 453 kts 310°
2026-04-21 15:04 24.71015 56.31581 23773 ft 458 kts 320°
2026-04-21 15:04 24.73762 56.29828 23499 ft 454 kts 333°
2026-04-21 15:04 24.76711 56.28569 22614 ft 457 kts 338°
2026-04-21 15:04 24.79772 56.27561 21647 ft 461 kts 341°
2026-04-21 15:05 24.82866 56.26670 21050 ft 456 kts 342°
2026-04-21 15:05 24.88235 56.23811 20453 ft 416 kts 314°
2026-04-21 15:05 24.89983 56.21381 20222 ft 398 kts 299°
2026-04-21 15:06 24.91332 56.18782 19988 ft 384 kts 296°
2026-04-21 15:06 24.92596 56.16247 19773 ft 372 kts 296°
2026-04-21 15:06 24.93826 56.13795 19567 ft 360 kts 297°
2026-04-21 15:06 24.95025 56.11425 19374 ft 348 kts 297°
2026-04-21 15:07 24.96191 56.09135 19198 ft 337 kts 297°
2026-04-21 15:07 24.97372 56.06957 18998 ft 328 kts 303°
2026-04-21 15:07 24.98798 56.05042 18842 ft 318 kts 308°
2026-04-21 15:07 25.00239 56.03283 18647 ft 309 kts 309°
2026-04-21 15:08 25.01670 56.01546 18323 ft 304 kts 309°
2026-04-21 15:08 25.03087 55.99823 17939 ft 302 kts 309°
2026-04-21 15:08 25.04491 55.98108 17533 ft 300 kts 309°
2026-04-21 15:08 25.05874 55.96418 17060 ft 293 kts 309°
2026-04-21 15:09 25.07238 55.94751 16322 ft 292 kts 309°
2026-04-21 15:09 25.08595 55.93098 15547 ft 291 kts 309°
2026-04-21 15:09 25.09947 55.91451 14794 ft 289 kts 308°
2026-04-21 15:09 25.11257 55.89819 14072 ft 287 kts 308°
2026-04-21 15:10 25.12578 55.88169 13403 ft 285 kts 309°
2026-04-21 15:10 25.13894 55.86557 12725 ft 281 kts 309°
2026-04-21 15:10 25.15194 55.84955 12015 ft 279 kts 308°
2026-04-21 15:10 25.16318 55.83233 11307 ft 275 kts 300°
2026-04-21 15:11 25.17331 55.81444 10612 ft 273 kts 300°
2026-04-21 15:11 25.18318 55.79662 9913 ft 272 kts 300°
2026-04-21 15:11 25.19301 55.77891 9219 ft 270 kts 301°
2026-04-21 15:11 25.20266 55.76154 8522 ft 268 kts 301°
2026-04-21 15:12 25.21235 55.74407 7935 ft 264 kts 301°
2026-04-21 15:12 25.22180 55.72706 7664 ft 259 kts 301°
2026-04-21 15:12 25.23125 55.71010 7465 ft 260 kts 302°
2026-04-21 15:12 25.24055 55.69348 7353 ft 248 kts 301°
2026-04-21 15:13 25.24944 55.67755 7135 ft 240 kts 301°
2026-04-21 15:13 25.25804 55.66212 6950 ft 233 kts 301°
2026-04-21 15:13 25.26658 55.64688 6725 ft 233 kts 302°
2026-04-21 15:13 25.27509 55.63168 6550 ft 233 kts 301°
2026-04-21 15:14 25.28343 55.61663 6368 ft 232 kts 301°
2026-04-21 15:14 25.29114 55.60108 6194 ft 232 kts 292°
2026-04-21 15:14 25.29330 55.58360 6019 ft 232 kts 263°
2026-04-21 15:14 25.28668 55.56754 5931 ft 235 kts 230°
2026-04-21 15:15 25.27384 55.55627 5886 ft 238 kts 214°
2026-04-21 15:15 25.25901 55.54816 5792 ft 241 kts 198°
2026-04-21 15:15 25.24238 55.54766 5732 ft 243 kts 165°
2026-04-21 15:15 25.22821 55.55735 5662 ft 243 kts 130°
2026-04-21 15:16 25.21853 55.57261 5608 ft 243 kts 121°
2026-04-21 15:16 25.21000 55.58847 5523 ft 243 kts 120°
2026-04-21 15:16 25.20140 55.60453 5452 ft 243 kts 121°
2026-04-21 15:16 25.19269 55.62051 5387 ft 244 kts 120°
2026-04-21 15:17 25.18392 55.63652 5308 ft 244 kts 121°
2026-04-21 15:17 25.17512 55.65241 5245 ft 243 kts 121°
2026-04-21 15:17 25.16629 55.66827 5164 ft 242 kts 121°
2026-04-21 15:17 25.15755 55.68409 5100 ft 241 kts 121°
2026-04-21 15:18 25.14878 55.69989 5034 ft 241 kts 121°
2026-04-21 15:18 25.13996 55.71564 4961 ft 241 kts 121°
2026-04-21 15:18 25.13119 55.73137 4884 ft 241 kts 121°
2026-04-21 15:18 25.12253 55.74689 4830 ft 241 kts 121°
2026-04-21 15:19 25.11376 55.76258 4749 ft 240 kts 121°
2026-04-21 15:19 25.10506 55.77810 4673 ft 233 kts 121°
2026-04-21 15:19 25.09675 55.79290 4584 ft 221 kts 121°
2026-04-21 15:19 25.08890 55.80692 4514 ft 211 kts 121°
2026-04-21 15:20 25.08121 55.82067 4495 ft 211 kts 121°
2026-04-21 15:20 25.07346 55.83443 4436 ft 212 kts 121°
2026-04-21 15:20 25.06484 55.84750 4351 ft 212 kts 135°
2026-04-21 15:20 25.05204 55.85454 4313 ft 211 kts 174°
2026-04-21 15:21 25.03802 55.85142 4258 ft 207 kts 208°
2026-04-21 15:21 25.02558 55.84350 4192 ft 207 kts 213°
2026-04-21 15:21 25.01375 55.83442 4132 ft 208 kts 223°
2026-04-21 15:21 25.00615 55.82125 4075 ft 204 kts 256°
2026-04-21 15:22 25.00690 55.80659 3988 ft 186 kts 292°
2026-04-21 15:22 25.01273 55.79427 3890 ft 178 kts 302°
2026-04-21 15:22 25.01908 55.78319 3803 ft 165 kts 303°
2026-04-21 15:22 25.02518 55.77269 3683 ft 162 kts 303°
2026-04-21 15:23 25.03122 55.76215 3552 ft 163 kts 302°
2026-04-21 15:23 25.03713 55.75177 3447 ft 162 kts 302°
2026-04-21 15:23 25.04306 55.74122 3312 ft 162 kts 302°
2026-04-21 15:23 25.04901 55.73068 3188 ft 162 kts 302°
2026-04-21 15:24 25.05497 55.72010 3062 ft 162 kts 302°
2026-04-21 15:24 25.06087 55.70957 2938 ft 161 kts 302°
2026-04-21 15:24 25.06674 55.69901 2821 ft 161 kts 302°
2026-04-21 15:24 25.07263 55.68854 2696 ft 161 kts 301°
2026-04-21 15:25 25.07847 55.67804 2570 ft 160 kts 301°
2026-04-21 15:25 25.08429 55.66758 2465 ft 160 kts 301°
2026-04-21 15:25 25.09004 55.65727 2336 ft 160 kts 302°
2026-04-21 15:25 25.09588 55.64679 2207 ft 161 kts 302°
2026-04-21 15:26 25.10176 55.63626 2088 ft 161 kts 302°
2026-04-21 15:26 25.10761 55.62575 2008 ft 161 kts 302°
2026-04-21 15:26 25.11348 55.61521 2005 ft 162 kts 302°
2026-04-21 15:26 25.11932 55.60470 2006 ft 161 kts 302°
2026-04-21 15:27 25.12517 55.59417 2003 ft 160 kts 301°
2026-04-21 15:27 25.13098 55.58372 2005 ft 159 kts 301°
2026-04-21 15:27 25.13670 55.57343 2005 ft 159 kts 301°
2026-04-21 15:27 25.14249 55.56302 2005 ft 160 kts 301°
2026-04-21 15:28 25.14829 55.55260 2012 ft 159 kts 301°
2026-04-21 15:28 25.15406 55.54218 2013 ft 159 kts 301°
2026-04-21 15:28 25.15986 55.53173 2013 ft 160 kts 301°
2026-04-21 15:28 25.16565 55.52132 2013 ft 159 kts 301°
2026-04-21 15:29 25.17145 55.51091 2015 ft 159 kts 301°
2026-04-21 15:29 25.17718 55.50060 2014 ft 154 kts 301°
2026-04-21 15:29 25.18262 55.49080 2015 ft 146 kts 301°
2026-04-21 15:29 25.18788 55.48135 1884 ft 143 kts 301°
2026-04-21 15:30 25.19298 55.47218 1706 ft 142 kts 301°
2026-04-21 15:30 25.19814 55.46288 1506 ft 142 kts 302°
2026-04-21 15:30 25.20328 55.45362 1316 ft 141 kts 302°
2026-04-21 15:30 25.20841 55.44440 1117 ft 141 kts 301°
2026-04-21 15:31 25.21342 55.43511 938 ft 141 kts 300°
2026-04-21 15:31 25.21835 55.42582 741 ft 140 kts 302°
2026-04-21 15:31 25.22349 55.41669 541 ft 140 kts 303°
2026-04-21 15:31 25.22860 55.40763 358 ft 138 kts 301°
2026-04-21 15:32 25.23366 55.39861 199 ft 138 kts 303°
2026-04-21 15:32 25.23883 55.38966 42 ft 138 kts 302°
2026-04-21 15:32 25.24315 55.38182 28 ft 89 kts 302°
2026-04-21 15:32 25.24525 55.37808 28 ft 43 kts 302°
2026-04-21 15:33 25.24611 55.37519 28 ft 22 kts 273°
2026-04-21 15:33 25.24615 55.37465 28 ft 7 kts 274°
2026-04-21 15:33 25.24614 55.37437 28 ft 0 kts 269°
2026-04-21 15:36 25.24614 55.37436 28 ft 1 kts 269°
2026-04-21 15:36 25.24614 55.37426 28 ft 4 kts 270°
2026-04-21 15:36 25.24615 55.37374 28 ft 10 kts 270°
2026-04-21 15:37 25.24625 55.37281 28 ft 14 kts 286°
2026-04-21 15:37 25.24671 55.37177 28 ft 16 kts 300°
2026-04-21 15:37 25.24733 55.37065 28 ft 18 kts 302°
2026-04-21 15:37 25.24744 55.36955 28 ft 15 kts 227°
2026-04-21 15:38 25.24656 55.36936 28 ft 6 kts 166°
2026-04-21 15:38 25.24614 55.36947 28 ft 8 kts 166°
2026-04-21 15:38 25.24587 55.36954 28 ft 0 kts 166°
2026-04-21 15:38 25.24584 55.36955 28 ft 1 kts 166°
2026-04-21 15:39 25.24575 55.36958 28 ft 2 kts 166°
2026-04-21 15:39 25.24559 55.36962 28 ft 0 kts 166°